When you browse on this site, cookies collect data to enhance your experience and personalize the content and advertising you see.
Visit our Privacy Policy to learn more. By continuing to use the site, you agree to this use of cookies and data.
  • In Romania
  • List of Countries
  • For 7 days
  • Water Temperature
  • Satellite Maps
  • Weather Map
  • Weather Widgets
  • user-avatar
    Login

    Hourly Weather Bayazitovo

    Today, 21 February, Thursday

    Time Temperature Precipitation Wind Pressure Humidity
    00:00 -13°C° 0 mm 7 mps 741 mmHg 92%
    01:00 -13°C° 0 mm 7 mps 741 mmHg 92%
    02:00 -12°C° 0 mm 7 mps 741 mmHg 91%
    03:00 -12°C° 0 mm 7 mps 741 mmHg 91%
    04:00 -11°C° 0 mm 7 mps 741 mmHg 90%
    05:00 -11°C° 0 mm 7 mps 741 mmHg 90%
    06:00 -11°C° 0 mm 7 mps 741 mmHg 90%
    07:00 -11°C° 0 mm 7 mps 741 mmHg 90%
    08:00 -11°C° 0.1 mm 7 mps 741 mmHg 91%
    09:00 -11°C° 0.1 mm 7 mps 741 mmHg 91%
    10:00 -11°C° 0.1 mm 8 mps 741 mmHg 91%
    11:00 -11°C° 0.1 mm 8 mps 741 mmHg 89%
    12:00 -10°C° 0.1 mm 8 mps 741 mmHg 87%
    13:00 -8°C° 0.1 mm 8 mps 741 mmHg 86%
    14:00 -8°C° 0.1 mm 8 mps 741 mmHg 86%
    15:00 -8°C° 0.1 mm 8 mps 741 mmHg 86%
    16:00 -7°C° 0.1 mm 8 mps 741 mmHg 86%
    17:00 -7°C° 0 mm 8 mps 741 mmHg 86%
    18:00 -7°C° 0 mm 8 mps 741 mmHg 87%
    19:00 -7°C° 0 mm 8 mps 741 mmHg 88%
    20:00 -6°C° 0 mm 8 mps 741 mmHg 88%
    21:00 -6°C° 0 mm 8 mps 741 mmHg 88%
    22:00 -5°C° 0 mm 8 mps 741 mmHg 88%
    23:00 -5°C° 0.1 mm 8 mps 740 mmHg 88%

    Tomorrow, 22 February, Friday

    Time Temperature Precipitation Wind Pressure Humidity
    00:00 -4°C° 0.1 mm 8 mps 740 mmHg 88%
    01:00 -3°C° 0.1 mm 7 mps 740 mmHg 88%
    02:00 -4°C° 0.1 mm 8 mps 740 mmHg 88%
    03:00 -4°C° 0.1 mm 8 mps 739 mmHg 88%
    04:00 -4°C° 0.1 mm 8 mps 739 mmHg 88%
    05:00 -5°C° 0.1 mm 8 mps 739 mmHg 89%
    06:00 -6°C° 0.1 mm 8 mps 739 mmHg 89%
    07:00 -7°C° 0.1 mm 8 mps 738 mmHg 89%
    08:00 -7°C° 0.1 mm 8 mps 738 mmHg 89%
    09:00 -7°C° 0.1 mm 8 mps 738 mmHg 89%
    10:00 -7°C° 0.1 mm 8 mps 738 mmHg 89%
    11:00 -7°C° 0.3 mm 8 mps 737 mmHg 90%
    12:00 -7°C° 0.3 mm 8 mps 737 mmHg 90%
    13:00 -6°C° 0.3 mm 8 mps 737 mmHg 91%
    14:00 -6°C° 0.3 mm 8 mps 737 mmHg 90%
    15:00 -5°C° 0.3 mm 8 mps 737 mmHg 89%
    16:00 -4°C° 0.3 mm 7 mps 737 mmHg 87%
    17:00 -7°C° 0.2 mm 7 mps 738 mmHg 87%
    18:00 -8°C° 0.2 mm 6 mps 739 mmHg 86%
    19:00 -10°C° 0.2 mm 6 mps 739 mmHg 86%
    20:00 -11°C° 0 mm 5 mps 741 mmHg 87%
    21:00 -11°C° 0 mm 5 mps 742 mmHg 88%
    22:00 -12°C° 0 mm 5 mps 743 mmHg 88%
    23:00 -12°C° 0 mm 5 mps 743 mmHg 89%

    Day after tomorrow, 23 February, Saturday

    Time Temperature Precipitation Wind Pressure Humidity
    00:00 -12°C° 0 mm 5 mps 744 mmHg 90%
    01:00 -12°C° 0 mm 5 mps 745 mmHg 91%
    02:00 -12°C° 0 mm 5 mps 745 mmHg 91%
    03:00 -12°C° 0 mm 5 mps 745 mmHg 91%
    04:00 -12°C° 0 mm 5 mps 746 mmHg 90%
    05:00 -13°C° 0 mm 5 mps 746 mmHg 91%
    06:00 -14°C° 0 mm 4 mps 746 mmHg 91%
    07:00 -14°C° 0 mm 4 mps 746 mmHg 92%
    08:00 -14°C° 0 mm 5 mps 747 mmHg 91%
    09:00 -13°C° 0 mm 5 mps 747 mmHg 91%
    10:00 -13°C° 0 mm 5 mps 748 mmHg 91%
    11:00 -13°C° 0.1 mm 5 mps 748 mmHg 90%
    12:00 -12°C° 0.1 mm 5 mps 748 mmHg 89%
    13:00 -12°C° 0.1 mm 5 mps 748 mmHg 89%
    14:00 -12°C° 0 mm 5 mps 749 mmHg 88%
    15:00 -12°C° 0 mm 5 mps 749 mmHg 88%
    16:00 -12°C° 0 mm 5 mps 749 mmHg 87%
    17:00 -12°C° 0 mm 4 mps 749 mmHg 89%
    18:00 -15°C° 0 mm 4 mps 749 mmHg 91%
    19:00 -15°C° 0 mm 3 mps 749 mmHg 93%
    20:00 -14°C° 0 mm 3 mps 750 mmHg 94%
    21:00 -14°C° 0 mm 3 mps 750 mmHg 94%
    22:00 -14°C° 0 mm 3 mps 750 mmHg 95%
    23:00 -14°C° 0 mm 4 mps 750 mmHg 94%

    24 February, Sunday

    Time Temperature Precipitation Wind Pressure Humidity
    00:00 -14°C° 0 mm 4 mps 750 mmHg 94%
    01:00 -12°C° 0 mm 4 mps 750 mmHg 93%
    02:00 -12°C° 0 mm 4 mps 750 mmHg 93%
    03:00 -12°C° 0 mm 4 mps 751 mmHg 93%
    04:00 -13°C° 0 mm 5 mps 751 mmHg 93%
    05:00 -13°C° 0 mm 5 mps 751 mmHg 93%
    06:00 -12°C° 0 mm 4 mps 751 mmHg 93%
    07:00 -12°C° 0 mm 4 mps 751 mmHg 93%
    08:00 -12°C° 0 mm 4 mps 751 mmHg 92%
    09:00 -11°C° 0 mm 4 mps 751 mmHg 91%
    10:00 -11°C° 0 mm 5 mps 751 mmHg 90%
    11:00 -11°C° 0 mm 5 mps 752 mmHg 90%
    12:00 -11°C° 0 mm 5 mps 752 mmHg 89%
    13:00 -10°C° 0 mm 5 mps 752 mmHg 88%
    14:00 -10°C° 0 mm 5 mps 751 mmHg 88%
    15:00 -11°C° 0 mm 5 mps 751 mmHg 87%
    16:00 -11°C° 0 mm 5 mps 751 mmHg 87%
    17:00 -11°C° 0 mm 5 mps 751 mmHg 88%
    18:00 -11°C° 0 mm 4 mps 751 mmHg 89%
    19:00 -11°C° 0 mm 4 mps 751 mmHg 90%
    20:00 -12°C° 0 mm 4 mps 751 mmHg 91%
    21:00 -12°C° 0 mm 4 mps 751 mmHg 91%
    22:00 -12°C° 0 mm 4 mps 751 mmHg 92%
    23:00 -14°C° 0 mm 4 mps 751 mmHg 92%

    25 February, Monday

    Time Temperature Precipitation Wind Pressure Humidity
    00:00 -14°C° 0 mm 4 mps 751 mmHg 93%
    01:00 -15°C° 0 mm 4 mps 750 mmHg 93%
    02:00 -15°C° 0 mm 4 mps 750 mmHg 93%
    03:00 -14°C° 0 mm 3 mps 750 mmHg 93%
    04:00 -14°C° 0 mm 3 mps 749 mmHg 93%
    05:00 -13°C° 0 mm 3 mps 749 mmHg 94%
    06:00 -12°C° 0 mm 3 mps 749 mmHg 94%
    07:00 -10°C° 0 mm 2 mps 749 mmHg 95%
    08:00 -9°C° 0.1 mm 3 mps 748 mmHg 94%
    09:00 -8°C° 0.1 mm 3 mps 748 mmHg 94%
    10:00 -8°C° 0.1 mm 4 mps 748 mmHg 94%
    11:00 -8°C° 0.1 mm 4 mps 748 mmHg 93%
    12:00 -7°C° 0.1 mm 4 mps 747 mmHg 92%
    13:00 -6°C° 0.1 mm 5 mps 746 mmHg 91%
    14:00 -6°C° 0.2 mm 5 mps 746 mmHg 92%
    15:00 -6°C° 0.2 mm 5 mps 745 mmHg 92%
    16:00 -6°C° 0.2 mm 5 mps 744 mmHg 92%
    17:00 -7°C° 0.2 mm 5 mps 744 mmHg 92%
    18:00 -7°C° 0.2 mm 5 mps 743 mmHg 92%
    19:00 -8°C° 0.2 mm 6 mps 743 mmHg 93%
    20:00 -7°C° 0.1 mm 5 mps 742 mmHg 92%
    21:00 -7°C° 0.1 mm 5 mps 742 mmHg 91%
    22:00 -6°C° 0.1 mm 5 mps 741 mmHg 91%
    23:00 -7°C° 0 mm 5 mps 741 mmHg 90%

    26 February, Tuesday

    Time Temperature Precipitation Wind Pressure Humidity
    00:00 -7°C° 0 mm 5 mps 741 mmHg 89%
    01:00 -8°C° 0 mm 5 mps 740 mmHg 89%
    02:00 -10°C° 0 mm 5 mps 740 mmHg 90%
    03:00 -11°C° 0 mm 4 mps 740 mmHg 91%
    04:00 -14°C° 0 mm 4 mps 739 mmHg 92%
    05:00 -14°C° 0 mm 4 mps 739 mmHg 92%
    06:00 -14°C° 0 mm 4 mps 739 mmHg 92%
    07:00 -14°C° 0 mm 4 mps 739 mmHg 92%
    08:00 -13°C° 0.1 mm 5 mps 739 mmHg 92%
    09:00 -12°C° 0.1 mm 5 mps 739 mmHg 91%
    10:00 -11°C° 0.1 mm 6 mps 739 mmHg 90%
    11:00 -11°C° 0.1 mm 6 mps 738 mmHg 89%
    12:00 -10°C° 0.1 mm 6 mps 738 mmHg 88%
    13:00 -10°C° 0.1 mm 6 mps 738 mmHg 87%
    14:00 -10°C° 0 mm 6 mps 738 mmHg 88%
    15:00 -10°C° 0 mm 6 mps 738 mmHg 88%
    16:00 -8°C° 0 mm 5 mps 737 mmHg 88%
    17:00 -10°C° 0 mm 5 mps 737 mmHg 89%
    18:00 -9°C° 0 mm 4 mps 737 mmHg 91%
    19:00 -10°C° 0 mm 4 mps 737 mmHg 92%
    20:00 -10°C° 0 mm 4 mps 737 mmHg 92%
    21:00 -11°C° 0 mm 4 mps 737 mmHg 93%
    22:00 -12°C° 0 mm 4 mps 736 mmHg 94%
    23:00 -12°C° 0 mm 4 mps 736 mmHg 93%
    Show more